﻿Дата;C8 Network;UBN;Google;ReadMe.ru
2014-04-28;1;0;0;0
2014-04-24;1;0;0;0
2014-02-03;1;0;0;0
2014-01-30;1;0;0;0
2013-12-25;1;0;0;0
2013-11-20;1;0;0;0
2013-10-08;1;0;0;0
2013-10-02;2;0;0;0
2013-09-27;1;0;0;0
2013-08-06;1;0;0;0
2013-07-19;1;0;0;0
2013-07-10;0;0;0;1
2013-07-06;1;0;0;0
2013-07-02;1;0;0;0
2013-06-12;1;0;0;0
2013-06-04;1;0;0;0
2013-05-28;1;0;0;0
2013-05-13;1;0;0;0
2013-04-04;1;0;0;0
2013-03-14;1;0;0;0
2013-03-05;2;0;0;0
2013-02-26;1;0;0;0
2013-02-17;28;0;0;0
2013-02-16;20;0;0;0
2013-02-15;7;0;0;0
2013-02-13;8;0;0;0
2013-02-12;2;0;0;0
2013-02-11;7;0;0;0
2013-02-10;13;0;0;0
2013-02-09;12;0;0;0
2013-02-08;6;0;0;0
2013-02-07;9;0;0;0
2013-02-06;15;0;0;0
2013-02-05;20;0;0;0
2013-02-04;11;0;0;0
2013-02-03;7;0;0;0
2013-02-02;1;0;0;0
2013-02-01;4;0;0;0
2013-01-31;4;0;0;0
2013-01-30;1;0;0;0
2013-01-29;2;0;0;0
2013-01-26;1;0;0;0
2013-01-24;1;0;0;0
2013-01-23;2;0;0;0
2013-01-21;1;0;0;0
2013-01-20;4;0;0;0
2013-01-19;2;0;0;0
2013-01-18;1;0;0;0
2013-01-16;1;0;0;0
2013-01-15;5;0;0;0
2013-01-10;1;0;0;0
2013-01-08;1;0;0;0
2013-01-06;1;0;0;0
2012-12-28;1;0;0;0
2012-12-26;1;0;0;0
2012-12-25;16;0;0;0
2012-12-24;1;0;0;0
2012-12-23;1;0;0;0
2012-12-17;2;0;0;0
2012-12-15;1;0;0;0
2012-12-12;2;0;0;0
2012-12-10;11;0;0;0
2012-12-09;4;0;0;0
2012-12-08;3;0;0;0
2012-12-07;5;0;0;0
2012-11-21;1;0;0;0
2012-11-12;1;0;0;0
2012-11-09;1;0;0;0
2012-09-18;1;0;0;0
2012-09-13;1;0;0;0
2012-09-10;1;0;0;0
2012-09-05;1;0;0;0
2012-08-15;1;0;0;0
2012-07-31;1;0;0;0
2012-07-22;0;0;1;0
2012-07-18;1;0;0;0
2012-06-19;1;0;0;0
2012-06-12;1;0;0;0
2012-05-23;1;0;0;0
2012-05-15;2;0;0;0
2012-05-11;2;0;0;0
2012-05-10;2;0;0;0
2012-05-09;2;0;0;0
2012-05-08;2;0;0;0
2012-05-04;2;0;0;0
2012-05-03;1;0;0;0
2012-05-02;2;0;0;0
2012-05-01;1;0;0;0
2012-04-30;1;0;0;0
2012-04-27;1;0;0;0
2012-04-26;2;0;0;0
2012-04-25;2;0;0;0
2012-04-24;1;0;0;0
2012-04-23;5;0;0;0
2012-04-20;4;0;0;0
2012-04-19;3;0;0;0
2012-04-18;2;0;0;0
2012-04-17;1;0;0;0
2012-04-13;1;0;0;0
2012-04-12;3;0;0;0
2012-04-11;2;0;0;0
2012-04-10;1;0;0;0
2012-04-09;6;0;0;0
2012-04-06;2;0;0;0
2012-04-05;2;0;0;0
2012-04-04;3;0;0;0
2012-04-03;1;0;0;0
2012-04-02;4;0;0;0
2012-03-30;1;0;0;0
2012-03-29;2;0;0;0
2012-03-28;1;0;0;0
2012-03-27;1;0;0;0
2012-03-26;4;0;0;0
2012-03-23;1;0;0;0
2012-03-22;1;0;0;0
2012-03-21;1;0;0;0
2012-03-20;2;0;0;0
2012-03-19;1;0;0;0
2012-03-18;1;0;0;0
2012-03-16;3;0;0;0
2012-03-15;4;0;0;0
2012-03-14;3;0;0;0
2012-03-12;3;0;0;0
2012-03-09;2;0;0;0
2012-03-08;4;0;0;0
2012-03-07;2;0;0;0
2012-03-06;4;0;0;0
2012-03-05;2;0;0;0
2012-03-02;4;0;0;0
2012-03-01;8;0;0;0
2012-02-29;8;0;0;0
2012-02-28;5;0;0;0
2012-02-27;2;0;0;0
2012-02-24;8;0;0;0
2012-02-22;1;0;0;0
2012-02-21;3;0;0;0
2012-02-20;3;0;0;0
2012-02-17;6;0;0;0
2012-02-16;2;0;0;0
2012-02-15;2;0;0;0
2012-02-14;3;0;0;0
2012-02-13;1;0;0;0
2012-02-10;1;0;0;0
2012-02-09;5;0;0;0
2012-02-08;3;0;0;0
2012-02-07;5;0;0;0
2012-02-06;5;0;0;0
2012-02-02;1;0;0;0
2012-02-01;2;0;0;0
2012-01-31;4;0;0;0
2012-01-30;3;0;0;0
2012-01-27;2;0;0;0
2012-01-26;3;0;0;0
2012-01-25;3;0;0;0
2012-01-24;4;0;0;0
2012-01-23;2;0;0;0
2012-01-22;1;0;0;0
2012-01-18;1;0;0;0
2012-01-17;2;0;0;0
2012-01-16;2;0;0;0
2012-01-12;1;0;0;0
2012-01-11;1;0;0;0
2012-01-10;4;0;0;0
2012-01-09;1;0;0;0
2012-01-06;2;0;0;0
2012-01-04;1;0;0;0
2012-01-03;2;0;0;0
2012-01-02;1;0;0;0
2011-12-29;1;0;0;0
2011-12-26;2;0;0;0
2011-12-23;1;0;0;0
2011-12-22;2;0;0;0
2011-12-21;2;0;0;0
2011-12-19;2;0;0;0
2011-12-15;2;0;0;0
2011-12-14;1;0;0;0
2011-12-13;1;0;0;0
2011-12-12;1;0;0;0
2011-12-05;1;0;0;0
2011-12-02;1;0;0;0
2011-12-01;1;0;0;0
2011-11-25;1;0;0;0
2011-11-24;2;0;0;0
2011-11-18;1;0;0;0
2011-11-14;1;0;0;0
2011-11-12;2;0;0;0
2011-11-10;1;0;0;0
2011-11-09;1;0;0;0
2011-11-08;1;0;0;0
2011-11-07;1;0;0;0
2011-11-04;1;0;0;0
2011-11-03;1;0;0;0
2011-11-01;1;0;0;0
2011-10-31;1;0;0;0
2011-10-19;1;0;0;0
2011-10-18;1;0;0;0
2011-10-17;1;0;0;0
2011-10-10;1;0;0;0
2011-10-07;1;0;0;0
2011-09-30;1;0;0;0
2011-09-22;1;0;0;0
2011-09-19;1;0;0;0
2011-09-16;2;0;0;0
2011-09-14;1;0;0;0
2011-09-10;1;0;0;0
2011-09-08;2;0;0;0
2011-09-05;1;0;0;0
2011-09-01;1;0;0;0
2011-08-30;1;0;0;0
2011-08-29;2;0;0;0
2011-08-08;5;0;0;0
2011-08-07;14;0;0;0
2011-08-06;7;0;0;0
2011-08-05;11;0;0;0
2011-08-04;18;0;0;0
2011-08-03;4;0;0;0
2011-08-02;7;0;0;0
2011-08-01;5;0;0;0
2011-07-31;7;0;0;0
2011-07-30;4;0;0;0
2011-07-29;3;0;0;0
2011-07-28;11;0;0;0
2011-07-27;7;0;0;0
2011-07-26;3;0;0;0
2011-07-25;4;0;0;0
2011-07-24;1;0;0;0
2011-07-23;2;0;0;0
2011-07-22;3;0;0;0
2011-07-21;4;0;0;0
2011-07-20;6;0;0;0
2011-07-19;14;0;0;0
2011-07-18;27;0;0;0
2011-07-17;30;0;0;0
2011-07-16;30;0;0;0
2011-07-15;18;0;0;0
2011-07-14;16;0;0;0
2011-07-13;7;0;0;0
2011-07-12;21;0;0;0
2011-07-11;9;0;1;0
2011-07-10;4;0;0;0
2011-07-09;7;0;0;0
2011-07-08;3;0;0;0
2011-07-07;7;0;0;0
2011-07-06;4;0;0;0
2011-07-05;2;0;0;0
2011-07-04;7;0;0;0
2011-07-03;3;0;0;0
2011-07-02;6;0;0;0
2011-07-01;9;0;0;0
2011-06-30;8;0;0;0
2011-06-29;6;0;0;0
2011-06-28;8;0;0;0
2011-06-27;2;0;0;0
2011-06-26;6;0;0;0
2011-06-25;2;0;0;0
2011-06-24;2;0;0;0
2011-06-23;3;0;0;0
2011-06-22;6;0;0;0
2011-06-21;3;0;0;0
2011-06-20;3;0;0;0
2011-06-19;2;0;0;0
2011-06-18;2;0;0;0
2011-06-17;4;0;0;0
2011-06-16;6;0;0;0
2011-06-15;3;0;0;0
2011-06-14;7;0;0;0
2011-06-13;7;0;0;0
2011-06-12;3;0;0;0
2011-06-11;1;0;0;0
2011-06-10;6;0;0;0
2011-06-09;12;0;0;0
2011-06-08;11;0;1;0
2011-06-07;11;0;0;0
2011-06-06;15;0;0;0
2011-06-05;11;0;0;0
2011-06-04;7;0;0;0
2011-06-03;5;0;0;0
2011-06-02;5;0;0;0
2011-06-01;6;0;0;0
2011-05-31;10;0;0;0
2011-05-30;6;0;0;0
2011-05-29;4;0;0;0
2011-05-28;2;0;0;0
2011-05-27;5;0;0;0
2011-05-26;5;0;0;0
2011-05-25;5;0;0;0
2011-05-24;7;0;0;0
2011-05-23;8;0;0;0
2011-05-22;2;0;0;0
2011-05-21;1;0;0;0
2011-05-20;6;0;0;0
2011-05-19;3;0;0;0
2011-05-18;8;0;0;0
2011-05-17;11;0;0;0
2011-05-16;6;0;0;0
2011-05-15;9;0;0;0
2011-05-14;10;0;0;0
2011-05-13;20;0;0;0
2011-05-12;14;0;0;0
2011-05-11;4;0;0;0
2011-05-10;17;0;0;0
2011-05-09;9;0;0;0
2011-05-08;11;0;0;0
2011-05-07;9;0;0;0
2011-05-06;16;0;0;0
2011-05-05;12;0;0;0
2011-05-04;13;0;0;0
2011-05-03;10;0;0;0
2011-05-02;5;0;0;0
2011-05-01;2;0;0;0
2011-04-30;7;0;0;0
2011-04-29;10;0;0;0
2011-04-28;2;0;0;0
2011-04-27;8;0;0;0
2011-04-26;3;0;0;0
2011-04-25;4;0;0;0
2011-04-24;3;0;0;0
2011-04-23;2;0;0;0
2011-04-22;4;0;0;0
2011-04-21;2;0;0;0
2011-04-20;4;0;0;0
2011-04-19;3;0;0;0
2011-04-18;8;0;0;0
2011-04-17;6;0;0;0
2011-04-16;2;0;0;0
2011-04-15;10;0;0;0
2011-04-14;6;0;0;0
2011-04-13;7;0;0;0
2011-04-12;6;0;0;0
2011-04-11;11;0;0;0
2011-04-10;6;0;0;0
2011-04-09;5;0;0;0
2011-04-08;18;0;0;0
2011-04-07;9;0;0;0
2011-04-06;4;0;0;0
2011-04-05;16;0;0;0
2011-04-04;8;0;0;0
2011-04-03;15;0;0;0
2011-04-02;4;0;0;0
2011-04-01;13;0;0;0
2011-03-31;11;0;0;0
2011-03-30;1;0;0;0
2011-03-29;3;0;0;0
2011-03-28;3;0;0;0
2011-03-27;1;0;0;0
2011-03-26;1;0;0;0
2011-03-25;1;0;0;0
2011-03-24;1;0;0;0
2011-03-23;5;0;0;0
2011-03-22;9;0;0;0
2011-03-21;4;0;0;0
2011-03-20;12;0;0;0
2011-03-19;15;0;0;0
2011-03-18;18;0;0;0
2011-03-17;16;0;0;0
2011-03-16;16;0;0;0
2011-03-15;9;0;0;0
2011-03-14;12;0;0;0
2011-03-13;11;0;0;0
2011-03-12;9;0;0;0
2011-03-11;18;0;0;0
2011-03-10;17;0;0;0
2011-03-09;9;0;0;0
2011-03-08;17;0;0;0
2011-03-07;6;0;0;0
2011-03-06;5;0;0;0
2011-03-05;11;0;0;0
2011-03-04;6;0;0;0
2011-03-03;15;0;0;0
2011-03-02;11;0;0;0
2011-03-01;13;0;0;0
2011-02-28;13;0;0;0
2011-02-27;8;0;0;0
2011-02-26;11;0;0;0
2011-02-25;12;0;0;0
2011-02-24;10;0;0;0
2011-02-23;2;0;0;0
2011-02-22;6;0;0;0
2011-02-21;16;0;0;0
2011-02-20;13;0;0;0
2011-02-19;10;0;0;0
2011-02-18;32;0;0;0
2011-02-17;15;0;0;0
2011-02-16;6;0;0;0
2011-02-15;10;0;0;0
2011-02-14;8;0;0;0
2011-02-13;17;0;0;0
2011-02-12;14;0;0;0
2011-02-11;9;0;0;0
2011-02-10;19;0;0;0
2011-02-09;15;0;0;0
2011-02-08;19;0;0;0
2011-02-07;18;0;0;0
2011-02-06;25;0;0;0
2011-02-05;14;0;0;0
2011-02-04;14;0;0;0
2011-02-03;10;0;0;0
2011-02-02;18;0;0;0
2011-02-01;13;0;0;0
2011-01-31;22;0;0;0
2011-01-30;13;0;0;0
2011-01-29;6;0;0;0
2011-01-28;19;0;0;0
2011-01-27;9;0;0;0
2011-01-26;18;0;0;0
2011-01-25;13;0;0;0
2011-01-24;14;0;0;0
2011-01-23;14;0;0;0
2011-01-22;14;0;0;0
2011-01-21;30;0;0;0
2011-01-20;24;0;0;0
2011-01-19;16;0;0;0
2011-01-18;29;0;0;0
2011-01-17;52;0;0;0
2011-01-16;14;0;0;0
2011-01-15;16;0;0;0
2011-01-14;21;0;0;0
2011-01-13;35;0;0;0
2011-01-12;17;0;0;0
2011-01-11;16;0;0;0
2011-01-10;31;0;0;0
2011-01-09;37;0;0;0
2011-01-08;17;0;0;0
2011-01-07;19;0;0;0
2011-01-06;22;0;0;0
2011-01-05;24;0;0;0
2011-01-04;30;0;0;0
2011-01-03;27;0;0;0
2011-01-02;16;0;0;0
2011-01-01;6;0;0;0
2010-12-31;5;0;0;0
2010-12-30;5;0;0;0
2010-12-29;7;0;0;0
2010-12-28;1;0;0;0
2010-12-27;3;0;0;0
2010-12-26;5;0;0;0
2010-12-25;6;0;0;0
2010-12-24;2;0;0;0
2010-12-23;5;0;0;0
2010-12-22;12;0;0;0
2010-12-21;8;0;0;0
2010-12-20;10;0;0;0
2010-12-19;8;0;0;0
2010-12-18;7;0;0;0
2010-12-17;11;0;0;0
2010-12-16;2;0;0;0
2010-12-15;14;0;0;0
2010-12-14;13;0;0;0
2010-12-13;7;0;0;0
2010-12-12;6;0;0;0
2010-12-11;5;0;0;0
2010-12-10;8;0;0;0
2010-12-09;6;0;0;0
2010-12-08;3;0;0;0
2010-12-07;12;0;0;0
2010-12-06;11;0;0;0
2010-12-05;6;0;0;0
2010-12-04;7;0;0;0
2010-12-03;17;0;0;0
2010-12-02;5;0;0;0
2010-11-30;1;0;0;0
2010-11-22;0;1;0;0
2010-11-21;1;0;0;0
2010-11-19;0;1;0;0
2010-11-17;0;1;0;0
2010-11-16;1;0;0;0
2010-11-15;0;1;0;0
2010-11-12;0;1;0;0
2010-11-11;0;1;0;0
2010-11-05;0;1;0;0
2010-10-29;1;0;0;0
2010-10-26;0;1;0;0
2010-10-20;0;1;0;0
2010-10-17;0;1;0;0
2010-10-14;0;1;0;0
2010-10-12;0;1;0;0
2010-10-11;0;1;0;0
2010-09-28;0;1;0;0
2010-09-25;0;1;0;0
2010-09-23;1;0;0;0
2010-09-21;0;2;0;0
2010-09-15;0;1;0;0
